Overview Statistics Trail Chart Weather Telemetry Raw packets
 

This is the latest recevied weather packets stored in our database for station/object KO6LQK. If no packets are shown the sender has not sent any weather packets the latest 10 day(s).

<< 9 10 11 12 13 14 15 >>
Time Temp. Humidity Pressure Rain* Wind** Luminosity Snow
1788379939 27.78° C 18% 1022.3 hPa 0 mm - 930 W/m² -
1788379635 27.78° C 18% 1022.2 hPa 0 mm - 927 W/m² -
1788379331 27.78° C 18% 1022.3 hPa 0 mm - 930 W/m² -
1788379026 27.78° C 19% 1022.4 hPa 0 mm - 928 W/m² -
1788378725 27.78° C 18% 1022.4 hPa 0 mm - 927 W/m² -
1788378424 27.78° C 19% 1022.3 hPa 0 mm - 927 W/m² -
1788378120 27.78° C 19% 1022.4 hPa 0 mm - 926 W/m² -
1788377815 27.78° C 19% 1022.6 hPa 0 mm - 923 W/m² -
1788377511 27.78° C 19% 1022.4 hPa 0 mm - 919 W/m² -
1788377209 27.78° C 20% 1022.6 hPa 0 mm - 914 W/m² -
1788376908 27.22° C 19% 1022.6 hPa 0 mm - 907 W/m² -
1788376608 26.67° C 20% 1022.8 hPa 0 mm - 897 W/m² -
1788376303 26.67° C 19% 1023 hPa 0 mm - 892 W/m² -
1788375999 26.67° C 20% 1022.7 hPa 0 mm - 885 W/m² -
1788375694 27.22° C 20% 1022.9 hPa 0 mm - 879 W/m² -
1788375390 27.22° C 19% 1022.7 hPa 0 mm - 872 W/m² -
1788375085 27.78° C 19% 1023 hPa 0 mm - 866 W/m² -
1788374780 27.22° C 19% 1022.8 hPa 0 mm - 858 W/m² -
1788374476 26.67° C 18% 1023 hPa 0 mm - 848 W/m² -
1788374172 27.22° C 18% 1022.8 hPa 0 mm - 840 W/m² -
1788373868 27.22° C 18% 1022.8 hPa 0 mm - 828 W/m² -
1788373564 26.67° C 20% 1023 hPa 0 mm - 820 W/m² -
1788373260 26.67° C 20% 1023 hPa 0 mm - 805 W/m² -
1788372956 26.67° C 19% 1023 hPa 0 mm - 794 W/m² -
1788372655 26.11° C 21% 1023 hPa 0 mm - 778 W/m² -

* Rain latest hour (hover to see other rain measurements)
** Current wind speed in m/s (hover to see current wind gust speed)